Date String (YYYY-MM-DD hh:mm:ss) UTC,Instrument flags,Ambient pressure (hPa),Sample flow (lpm),Bypass flow (lpm),Sample temperature (°C),Ambient temperature (°C),ASC tube jacket temperature (°C),LED temperature (°C),Box temperature (°C),Sample RH (%),Span deviation,Mass concentration (μg/m³),Mass concentration (μg/m³),Mass concentration (μg/m³)
DateTimeUTC,F1_M11,P_M11,Q1_M11,Q2_M11,T1_M11,T2_M11,T3_M11,T4_M11,T5_M11,U1_M11,ZSPAN_M11,X2_M11,X0_M11,X1_M11
2022-01-17 18:00:00,,0822.7,4.99,0.00,24.7,24.0,00.0,33.6,26.6,11.5,0000.0,0004.75,0011.73,0004.16
2022-01-17 18:01:00,,0822.7,4.99,0.00,24.7,24.0,00.0,33.6,26.6,11.4,0000.0,0004.86,0011.32,0004.25
2022-01-17 18:02:00,,0822.7,5.00,0.00,24.7,24.0,00.0,33.6,26.6,11.5,0000.0,0004.97,0011.56,0004.33
2022-01-17 18:03:00,,0822.6,5.00,0.00,24.8,24.0,00.0,33.7,26.6,10.9,0000.0,0004.98,0012.26,0004.36
2022-01-17 18:04:00,,0822.7,5.01,0.00,24.8,24.0,00.0,33.7,26.7,11.0,0000.0,0005.00,0012.58,0004.37
2022-01-17 18:05:00,,0822.7,4.99,0.00,24.8,24.1,00.0,33.7,26.7,11.1,0000.0,0004.98,0012.42,0004.38
2022-01-17 18:06:00,,0822.6,5.02,0.00,24.8,24.1,00.0,33.7,26.7,11.1,0000.0,0004.95,0012.03,0004.37
2022-01-17 18:07:00,,0822.7,4.99,0.00,24.8,24.1,00.0,33.7,26.7,10.7,0000.0,0004.89,0011.08,0004.33
2022-01-17 18:08:00,,0822.7,5.02,0.00,24.9,24.1,00.0,33.7,26.7,09.1,0000.0,0004.78,0010.83,0004.24
2022-01-17 18:09:00,,0822.8,5.00,0.00,24.9,24.1,00.0,33.7,26.7,09.2,0000.0,0004.61,0010.96,0004.11
2022-01-17 18:10:00,,0822.9,5.00,0.00,24.9,24.2,00.0,33.7,26.8,10.0,0000.0,0004.46,0010.91,0004.00
2022-01-17 18:11:00,,0822.9,5.01,0.00,24.9,24.2,00.0,33.8,26.8,10.5,0000.0,0004.37,0010.43,0003.91
2022-01-17 18:12:00,,0822.8,5.01,0.00,25.0,24.2,00.0,33.8,26.8,09.1,0000.0,0004.24,0010.01,0003.79
2022-01-17 18:13:00,,0822.7,4.99,0.00,25.0,24.2,00.0,33.8,26.9,08.7,0000.0,0004.08,0009.41,0003.64
2022-01-17 18:14:00,,0822.7,5.01,0.00,25.0,24.2,00.0,33.8,26.9,08.8,0000.0,0003.92,0008.43,0003.49
2022-01-17 18:15:00,,0822.7,4.99,0.00,25.0,24.3,00.0,33.8,26.9,08.1,0000.0,0003.72,0007.57,0003.35
2022-01-17 18:16:00,,0822.7,5.02,0.00,25.0,24.3,00.0,33.8,26.9,07.6,0000.0,0003.54,0007.91,0003.18
2022-01-17 18:17:00,,0822.7,4.98,0.00,25.1,24.3,00.0,33.9,26.9,08.8,0000.0,0003.43,0007.82,0003.02
2022-01-17 18:18:00,,0822.7,5.02,0.00,25.1,24.3,00.0,33.9,26.9,09.2,0000.0,0003.29,0007.59,0002.85
2022-01-17 18:19:00,,0822.7,4.98,0.00,25.1,24.3,00.0,33.9,27.0,09.8,0000.0,0003.25,0007.37,0002.77
2022-01-17 18:20:00,,0822.7,5.02,0.00,25.1,24.4,00.0,33.9,27.0,09.9,0000.0,0003.27,0006.63,0002.82
2022-01-17 18:21:00,,0822.6,4.98,0.00,25.1,24.4,00.0,33.9,27.0,09.5,0000.0,0003.24,0006.64,0002.78
2022-01-17 18:22:00,,0822.6,5.00,0.00,25.2,24.4,00.0,33.9,27.1,08.8,0000.0,0003.20,0006.58,0002.67
2022-01-17 18:23:00,,0822.5,5.01,0.00,25.2,24.4,00.0,34.0,27.1,09.5,0000.0,0003.19,0006.74,0002.61
2022-01-17 18:24:00,,0822.5,4.99,0.00,25.2,24.5,00.0,34.0,27.1,09.1,0000.0,0003.19,0006.83,0002.66
2022-01-17 18:25:00,,0822.4,4.99,0.00,25.2,24.5,00.0,34.0,27.1,09.8,0000.0,0003.22,0006.86,0002.73
2022-01-17 18:26:00,,0822.4,5.00,0.00,25.2,24.5,00.0,34.0,27.1,09.5,0000.0,0003.30,0007.34,0002.82
2022-01-17 18:27:00,,0822.3,5.00,0.00,25.3,24.6,00.0,34.1,27.2,09.4,0000.0,0003.40,0006.87,0002.95
2022-01-17 18:28:00,,0822.4,5.01,0.00,25.3,24.6,00.0,34.1,27.2,10.0,0000.0,0003.50,0006.84,0003.09
2022-01-17 18:29:00,,0822.4,5.00,0.00,25.3,24.6,00.0,34.1,27.3,10.3,0000.0,0003.63,0007.30,0003.20
2022-01-17 18:30:00,,0822.5,4.99,0.00,25.3,24.6,00.0,34.1,27.3,10.7,0000.0,0003.73,0008.13,0003.28
2022-01-17 18:31:00,,0822.5,5.02,0.00,25.4,24.7,00.0,34.2,27.3,10.6,0000.0,0003.78,0008.33,0003.36
2022-01-17 18:32:00,,0822.5,4.99,0.00,25.4,24.7,00.0,34.2,27.3,10.2,0000.0,0003.85,0008.36,0003.44
2022-01-17 18:33:00,,0822.4,5.00,0.00,25.4,24.7,00.0,34.2,27.3,10.1,0000.0,0003.96,0008.90,0003.53
2022-01-17 18:34:00,,0822.3,4.99,0.00,25.4,24.7,00.0,34.2,27.3,10.0,0000.0,0004.05,0008.82,0003.61
2022-01-17 18:35:00,,0822.3,5.00,0.00,25.4,24.7,00.0,34.2,27.4,09.9,0000.0,0004.13,0009.39,0003.68
2022-01-17 18:36:00,,0822.4,4.98,0.00,25.5,24.7,00.0,34.3,27.4,09.8,0000.0,0004.21,0009.58,0003.74
2022-01-17 18:37:00,,0822.5,5.00,0.00,25.5,24.7,00.0,34.3,27.4,09.6,0000.0,0004.27,0009.63,0003.79
2022-01-17 18:38:00,,0822.5,4.99,0.00,25.5,24.8,00.0,34.3,27.4,09.0,0000.0,0004.32,0009.72,0003.83
2022-01-17 18:39:00,,0822.5,4.99,0.00,25.5,24.8,00.0,34.3,27.4,08.8,0000.0,0004.31,0009.83,0003.83
2022-01-17 18:40:00,,0822.5,5.02,0.00,25.5,24.8,00.0,34.3,27.4,08.2,0000.0,0004.25,0010.60,0003.78
2022-01-17 18:41:00,,0822.5,4.98,0.00,25.5,24.8,00.0,34.3,27.5,08.1,0000.0,0004.16,0010.28,0003.71
2022-01-17 18:42:00,,0822.5,5.01,0.00,25.6,24.8,00.0,34.4,27.5,08.1,0000.0,0004.06,0010.03,0003.62
2022-01-17 18:43:00,,0822.5,5.00,0.00,25.6,24.8,00.0,34.4,27.5,08.1,0000.0,0003.98,0010.11,0003.54
2022-01-17 18:44:00,,0822.4,4.99,0.00,25.6,24.9,00.0,34.4,27.5,08.0,0000.0,0003.88,0009.74,0003.47
2022-01-17 18:45:00,,0822.5,5.01,0.00,25.6,24.9,00.0,34.4,27.5,07.6,0000.0,0003.77,0009.60,0003.38
2022-01-17 18:46:00,,0822.4,4.98,0.00,25.6,24.9,00.0,34.5,27.5,07.9,0000.0,0003.70,0009.25,0003.30
2022-01-17 18:47:00,,0822.5,5.00,0.00,25.6,24.9,00.0,34.5,27.6,07.6,0000.0,0003.61,0008.89,0003.21
2022-01-17 18:48:00,,0822.5,5.01,0.00,25.6,24.9,00.0,34.5,27.6,07.8,0000.0,0003.52,0008.70,0003.11
2022-01-17 18:49:00,,0822.5,4.99,0.00,25.7,24.9,00.0,34.5,27.6,08.1,0000.0,0003.41,0008.46,0003.00
2022-01-17 18:50:00,,0822.4,5.00,0.00,25.7,24.9,00.0,34.5,27.6,08.4,0000.0,0003.34,0008.33,0002.92
2022-01-17 18:51:00,,0822.4,5.00,0.00,25.7,24.9,00.0,34.5,27.6,08.4,0000.0,0003.30,0007.69,0002.87
2022-01-17 18:52:00,,0822.3,5.01,0.00,25.7,24.9,00.0,34.6,27.6,08.6,0000.0,0003.30,0007.41,0002.86
2022-01-17 18:53:00,,0822.3,4.99,0.00,25.7,24.9,00.0,34.6,27.6,08.5,0000.0,0003.31,0007.06,0002.87
2022-01-17 18:54:00,,0822.3,5.00,0.00,25.7,24.9,00.0,34.6,27.6,08.3,0000.0,0003.33,0007.37,0002.88
2022-01-17 18:55:00,,0822.3,5.00,0.00,25.7,24.9,00.0,34.6,27.6,08.6,0000.0,0003.35,0006.77,0002.88
2022-01-17 18:56:00,,0822.3,5.00,0.00,25.7,24.9,00.0,34.6,27.6,08.5,0000.0,0003.35,0006.87,0002.92
2022-01-17 18:57:00,,0822.2,5.01,0.00,25.7,25.0,00.0,34.6,27.6,08.6,0000.0,0003.36,0007.58,0002.97
2022-01-17 18:58:00,,0822.1,4.99,0.00,25.7,25.0,00.0,34.6,27.6,08.6,0000.0,0003.38,0007.44,0003.03
2022-01-17 18:59:00,,0822.1,5.00,0.00,25.7,25.0,00.0,34.7,27.6,08.5,0000.0,0003.39,0007.41,0003.09
